Date,TemperatureHighF,TemperatureAvgF,TemperatureLowF,DewpointHighF,DewpointAvgF,DewpointLowF,HumidityHigh,HumidityAvg,HumidityLow,PressureMaxIn,PressureMinIn,WindSpeedMaxMPH,WindSpeedAvgMPH,GustSpeedMaxMPH,PrecipitationSumIn
2013-2-1,64.8,56.0,46.8,46.6,40.0,32.2,74,56,36,30.38,30.24,14,3,14,0.00
2013-2-2,72.9,57.7,46.0,49.6,43.3,36.0,78,60,26,30.32,30.19,7,2,10,0.00
2013-2-3,69.4,56.7,43.3,57.2,49.4,41.4,96,77,62,30.22,30.12,8,1,10,0.00
2013-2-4,72.7,55.4,44.8,52.7,44.6,32.2,95,71,23,30.16,30.06,6,1,10,0.01
2013-2-5,79.0,60.3,45.7,58.1,49.3,41.0,91,70,36,30.11,30.01,9,1,12,0.00
2013-2-6,80.4,67.9,58.5,62.6,59.2,54.7,91,75,51,30.12,30.03,7,1,9,0.00
2013-2-7,80.2,70.0,63.3,67.5,64.0,59.2,94,82,56,30.07,29.89,18,4,26,0.10
2013-2-8,71.2,65.1,59.7,66.9,61.4,57.0,95,88,74,30.10,29.92,13,3,16,0.00
2013-2-9,76.8,63.1,55.4,60.1,55.9,52.5,96,79,44,30.22,30.09,8,2,11,0.01
2013-2-10,83.5,69.9,60.3,64.0,60.0,55.0,88,72,48,30.25,30.14,12,3,16,0.00
2013-2-11,81.7,71.6,64.0,68.0,64.6,61.0,92,79,61,30.20,30.09,17,3,18,0.00
2013-2-12,82.0,73.1,68.0,71.2,68.7,65.8,95,87,69,30.11,29.96,19,5,21,0.00
2013-2-13,81.7,71.0,58.6,73.8,67.8,55.4,97,90,75,30.01,29.86,15,4,21,1.04
2013-2-14,64.4,60.9,58.6,61.3,59.0,56.8,97,93,86,30.07,29.95,11,1,13,0.23
2013-2-15,67.3,58.4,53.4,58.1,54.1,50.7,96,86,68,30.10,29.99,5,1,8,0.01
2013-2-16,68.5,58.0,49.5,54.0,47.7,35.6,94,70,47,30.16,29.97,18,4,22,0.02
2013-2-17,54.1,46.3,37.6,38.1,28.5,19.2,83,51,38,30.36,30.15,15,4,22,0.00
2013-2-18,70.9,53.6,36.5,51.1,37.9,24.1,87,59,28,30.38,30.21,8,1,12,0.00
2013-2-19,77.4,65.6,53.6,62.4,56.8,49.5,93,75,51,30.23,30.10,13,2,23,0.00
2013-2-20,78.3,64.7,57.9,64.2,59.9,53.1,96,85,61,30.14,30.04,7,1,11,0.00
2013-2-21,84.7,69.1,57.7,66.9,61.6,52.7,92,78,52,30.12,30.00,9,1,15,0.00
2013-2-22,83.8,72.6,63.9,70.3,66.6,62.2,96,83,61,30.08,30.01,17,3,19,0.01
2013-2-23,79.9,72.8,69.1,72.9,69.7,67.3,96,90,79,30.03,29.92,14,4,22,0.00
2013-2-24,77.4,71.0,68.4,72.0,68.8,67.1,97,93,81,29.98,29.89,10,1,14,0.00
2013-2-25,82.9,74.7,68.4,72.1,69.6,67.1,97,85,63,29.92,29.78,12,3,18,0.00
2013-2-26,75.4,71.7,66.9,72.0,67.8,61.7,95,88,73,29.90,29.71,16,4,28,0.27
2013-2-27,68.5,64.6,60.1,62.4,57.0,53.2,84,77,65,30.01,29.89,8,3,15,0.00
2013-2-28,72.7,64.9,60.3,58.5,54.3,48.2,80,69,58,30.02,29.94,7,2,10,0.00